Regional Weather Roundup
Issued by NWS

Home | Current Version | Previous Version | Text Only | Print | Product List | Glossary Off
Versions: 1 2 3 4 5 6 7 8 9 10 11 12 13 14 15 16 17 18 19 20 21 22 23 24 25 26 27 28 29 30 31 32 33 34 35 36 37 38 39 40 41 42 43 44 45 46 47 48 49 50

000
ASUS43 KOAX 200002
RWRNE

WEATHER ROUNDUP FOR NEBRASKA
NATIONAL WEATHER SERVICE OMAHA NE
600 PM CST THU JAN 19 2017

NOTES: SATELLITE DATA IS BEING USED TO AUGMENT CLOUD COVER ABOVE
       12000 FEET.
       "FAIR" INDICATES FEW OR NO CLOUDS BELOW 12,000 FEET WITH NO
       SIGNIFICANT WEATHER AND/OR OBSTRUCTIONS TO VISIBILITY.

  * THESE STATIONS DO NOT REPORT WEATHER SUCH AS RAIN...SNOW OR FOG.

NEZ001>004-019>022-054>056-200100-
NEBRASKA PANHANDLE

CITY           SKY/WX    TMP DP  RH WIND       PRES   REMARKS
SCOTTSBLUFF    CLEAR     43  24  47 NW7       29.50R
6HR MIN TEMP:  43; 6HR MAX TEMP:  56;

ALLIANCE       CLEAR     41  24  51 SW5       29.48S
6HR MIN TEMP:  41; 6HR MAX TEMP:  53;

CHADRON        CLEAR     35  27  72 W7        29.49R WCI  29
6HR MIN TEMP:  35; 6HR MAX TEMP:  43;

KIMBALL        CLEAR     42  28  58 N7        29.52R
SIDNEY         CLEAR     36  26  67 S8        29.51R WCI  30
6HR MIN TEMP:  36; 6HR MAX TEMP:  54;

$$

NEZ057>060-069>072-079>082-200100-
SOUTHWEST NEBRASKA

CITY           SKY/WX    TMP DP  RH WIND       PRES   REMARKS
NORTH PLATTE   CLOUDY    38  37  97 S8        29.55F WCI  32
6HR MIN TEMP:  33; 6HR MAX TEMP:  39;

IMPERIAL       FOG       35  34  96 SE10      29.54S VSB 1/4 WCI  27
6HR MIN TEMP:  35; 6HR MAX TEMP:  44;

LEXINGTON      CLOUDY    41  39  94 SE5       29.57F FOG
MCCOOK         CLOUDY    36  36 100 CALM      29.56F FOG
6HR MIN TEMP:  35; 6HR MAX TEMP:  38;

OGALLALA       CLEAR     39  32  76 CALM      29.52S
$$

NEZ005>010-023>029-035>040-094-200100-
NORTH CENTRAL NEBRASKA

CITY           SKY/WX    TMP DP  RH WIND       PRES   REMARKS
VALENTINE      CLEAR     41  30  65 S15       29.48R
6HR MIN TEMP:  41; 6HR MAX TEMP:  57;

AINSWORTH      CLOUDY    38  37  97 S15       29.50F WCI  29
BROKEN BOW     CLOUDY    41  38  89 S9        29.55F
6HR MIN TEMP:  40; 6HR MAX TEMP:  42;

O`NEILL        CLOUDY    41  41  99 S10       29.56F FOG
ORD            CLOUDY    40  38  93 SE6       29.57F FOG
6HR MIN TEMP:  39; 6HR MAX TEMP:  42;

THEDFORD       CLOUDY    38  36  93 S5        29.53S WCI  34
$$

NEZ041-046>049-061>064-073>077-083>087-200100-
SOUTH CENTRAL NEBRASKA

CITY           SKY/WX    TMP DP  RH WIND       PRES   REMARKS
GRAND ISLAND   CLOUDY    40  40 100 S3        29.62S
6HR MIN TEMP:  40; 6HR MAX TEMP:  42;

AURORA         CLOUDY    40  40 100 CALM      29.62R FOG
HASTINGS       FOG       41  40  96 CALM      29.62R VSB 1
6HR MIN TEMP:  41; 6HR MAX TEMP:  42;

HEBRON         FOG       41  41  99 CALM      29.63S VSB 3/4
HOLDREGE       CLOUDY    40  39  97 S3        29.60R FOG
KEARNEY *      CLOUDY    39  37  93 S3        29.60F VSB 3/4
YORK           CLEAR     39  39 100 CALM      29.63S FOG
$$

NEZ011>018-030>034-042>045-200100-
NORTHEAST NEBRASKA

CITY           SKY/WX    TMP DP  RH WIND       PRES   REMARKS
NORFOLK        CLOUDY    39  38  96 S7        29.62S FOG     WCI  34
6HR MIN TEMP:  38; 6HR MAX TEMP:  40;

ALBION         FOG      N/A N/A N/A SE7       29.61F VSB 1/2
BLAIR          FOG       41  40  97 CALM      29.65S VSB 1/4
FREMONT        FOG       39  39 100 CALM      29.65S VSB 1/4
TEKAMAH        FOG       37  36  96 CALM      29.66R VSB 1/2
6HR MIN TEMP:  37; 6HR MAX TEMP:  39;

WAYNE          FOG       38  38  99 S7        29.64S VSB 1   WCI  33
$$

NEZ050>053-065>068-078-088>093-200100-
SOUTHEAST NEBRASKA

CITY           SKY/WX    TMP DP  RH WIND       PRES   REMARKS
LINCOLN        CLOUDY    41  41 100 SE3       29.66S FOG
6HR MIN TEMP:  41; 6HR MAX TEMP:  44;

OMAHA EPPLEY   CLOUDY    41  37  86 SE3       29.66S FOG
6HR MIN TEMP:  41; 6HR MAX TEMP:  45;

BEATRICE       FOG       41  41 100 NE3       29.64S VSB 1/2
FALLS CITY     CLOUDY    43  42  97 CALM      29.64F FOG
6HR MIN TEMP:  43; 6HR MAX TEMP:  46;

NEBRASKA CITY  FOG       41  41 100 CALM      29.66R VSB 1/4
PLATTSMOUTH    FOG       40  38  93 CALM      29.66R VSB 1/4
$$

NEZ044-045-051>053-067-200100-
OMAHA AREA

CITY           SKY/WX    TMP DP  RH WIND       PRES   REMARKS
OMAHA EPPLEY   CLOUDY    41  37  86 SE3       29.66S FOG
6HR MIN TEMP:  41; 6HR MAX TEMP:  45;

BLAIR          FOG       41  40  97 CALM      29.65S VSB 1/4
FREMONT        FOG       39  39 100 CALM      29.65S VSB 1/4
MILLARD        FOG       43  42  97 CALM      29.66S VSB 3/4
PLATTSMOUTH    FOG       40  38  93 CALM      29.66R VSB 1/4
WAHOO          FOG       38  38  97 S3        29.65S VSB 1/4
$$



USA.gov is the U.S. government's official web portal to all federal, state and local government web resources and services.